Change the Weather History Date:

Tuesday, July 23, 2013

  Actual Average Record
Temperature  
Mean Temperature 84 °F 81 °F  
Max Temperature 95 °F 93 °F 106 °F (1943)
Min Temperature 73 °F 70 °F 57 °F (1947)
Cooling Degree Days 19 16  
Month to date cooling degree days 338 367  
Year to date cooling degree days 958 962  
Since 1 June cooling degree days 726 745  
Growing Degree Days 33 (Base 50)    
Moisture  
Dew Point 73 °F    
Average Humidity 75    
Maximum Humidity 94    
Minimum Humidity 56    
Precipitation  
Precipitation 0.64 in 0.10 in 2.52 in (1949)
Month to date precipitation 2.11 2.99  
Year to date precipitation 16.07 28.63  
Snow  
Snow 0.00 in - - ()
Month to date snowfall 0.0  
Since 1 June snowfall 0.0  
Since 1 July snowfall 0.0  
Snow Depth 0.00 in    
Sea Level Pressure  
Sea Level Pressure 29.89 in    
Wind  
Wind Speed 6 mph (SW)    
Max Wind Speed 36 mph    
Max Gust Speed 49 mph    
Visibility 6 miles    
Events Rain , Thunderstorm    
T = Trace of Precipitation, MM = Missing Value Source: NWS Daily Summary

Daily Weather History Graph

Daily Weather History Graph

Search for Another Location

Airport or City:

Trip Planner

Search our weather history database for the weather conditions in past years. The results will help you decide how hot, cold, wet, or windy it might be!

Date:

Astronomy

Jul. 23, 2013 Rise Set
Actual Time 6:22 AM CDT 8:25 PM CDT
Civil Twilight 5:54 AM CDT 8:52 PM CDT
Nautical Twilight 5:20 AM CDT 9:26 PM CDT
Astronomical Twilight 4:44 AM CDT 10:03 PM CDT
Moon 9:01 PM CDT (7/23) 7:26 AM CDT (7/23)
Length of Visible Light 14h 58m
Length of Day
14h 02m
Full, 99% of the Moon is Illuminated
Jul 23
Full
Jul 29
Last Quarter
Aug 6
New
Aug 14
First Quarter
Aug 20
Full

Hourly Weather History & Observations

Time (CDT) Temp. Heat Index Dew Point Humidity Pressure Visibility Wind Dir Wind Speed Gust Speed Precip Events Conditions
12:53 AM 77.0 °F - 75.0 °F 94% 29.90 in 5.0 mi Calm Calm - N/A   Clear
1:53 AM 75.9 °F - 73.9 °F 94% 29.89 in 6.0 mi Calm Calm - N/A   Scattered Clouds
2:53 AM 75.9 °F - 73.0 °F 91% 29.89 in 8.0 mi Calm Calm - N/A   Clear
3:53 AM 75.0 °F - 73.0 °F 94% 29.90 in 7.0 mi Calm Calm - N/A   Clear
4:53 AM 75.0 °F - 73.0 °F 94% 29.90 in 4.0 mi Calm Calm - N/A   Clear
5:39 AM 73.9 °F - 73.0 °F 97% 29.91 in 2.5 mi Calm Calm - N/A   Clear
5:50 AM 73.4 °F - 71.6 °F 94% 29.92 in 4.0 mi Calm Calm - N/A   Clear
5:53 AM 73.9 °F - 72.0 °F 93% 29.90 in 4.0 mi Calm Calm - N/A   Clear
6:04 AM 73.9 °F - 72.0 °F 93% 29.92 in 1.8 mi Calm Calm - N/A   Clear
6:23 AM 73.9 °F - 73.0 °F 97% 29.92 in 3.0 mi Calm Calm - N/A   Clear
6:49 AM 73.4 °F - 71.6 °F 94% 29.93 in 2.0 mi Calm Calm - N/A   Clear
6:53 AM 73.0 °F - 72.0 °F 96% 29.92 in 2.0 mi Calm Calm - N/A   Clear
7:10 AM 75.0 °F - 73.0 °F 94% 29.93 in 3.0 mi Calm Calm - N/A   Clear
7:53 AM 78.1 °F - 75.0 °F 90% 29.94 in 6.0 mi Calm Calm - N/A   Clear
8:53 AM 82.0 °F 87.9 °F 73.9 °F 76% 29.94 in 9.0 mi WSW 6.9 mph - N/A   Clear
9:53 AM 84.9 °F 92.1 °F 73.9 °F 69% 29.95 in 9.0 mi WSW 10.4 mph - N/A   Clear
10:53 AM 87.1 °F 96.3 °F 75.0 °F 67% 29.95 in 9.0 mi SW 6.9 mph - N/A   Scattered Clouds
11:53 AM 89.1 °F 99.1 °F 75.0 °F 63% 29.92 in 10.0 mi WSW 8.1 mph - N/A   Partly Cloudy
12:53 PM 91.0 °F 102.9 °F 75.9 °F 61% 29.91 in 6.0 mi SSW 10.4 mph - N/A   Haze
1:53 PM 93.0 °F 105.3 °F 75.9 °F 57% 29.88 in 7.0 mi SW 9.2 mph - N/A   Partly Cloudy
2:53 PM 93.9 °F 106.9 °F 75.9 °F 56% 29.85 in 9.0 mi WSW 12.7 mph - N/A   Partly Cloudy
3:53 PM 93.9 °F 105.4 °F 75.0 °F 54% 29.82 in 10.0 mi SW 9.2 mph - N/A   Partly Cloudy
4:53 PM 93.0 °F 104.6 °F 75.0 °F 56% 29.81 in 10.0 mi SW 9.2 mph - N/A   Mostly Cloudy
5:10 PM 91.9 °F 103.2 °F 75.0 °F 58% 29.82 in 10.0 mi SSW 8.1 mph - N/A Thunderstorm Partly Cloudy
5:27 PM 91.0 °F 101.6 °F 75.0 °F 59% 29.82 in 10.0 mi South 6.9 mph - N/A Thunderstorm Thunderstorm
5:45 PM 87.1 °F 94.5 °F 73.0 °F 63% 29.84 in 10.0 mi SW 11.5 mph 21.9 mph N/A Thunderstorm Partly Cloudy
5:53 PM 82.9 °F 87.5 °F 71.1 °F 67% 29.84 in 10.0 mi SW 16.1 mph 26.5 mph N/A Thunderstorm Scattered Clouds
6:17 PM 79.0 °F - 69.1 °F 72% 29.85 in 10.0 mi Variable 4.6 mph - N/A Thunderstorm Thunderstorm
6:37 PM 77.0 °F - 70.0 °F 79% 29.87 in 1.8 mi West 8.1 mph - 0.07 in Rain , Thunderstorm Heavy Thunderstorms and Rain
6:53 PM 75.9 °F - 71.1 °F 85% 29.90 in 1.2 mi West 18.4 mph 24.2 mph 0.22 in Rain , Thunderstorm Heavy Thunderstorms and Rain
6:58 PM 73.9 °F - 69.1 °F 85% 29.89 in 0.2 mi WSW 35.7 mph 49.5 mph 0.25 in Rain , Thunderstorm Heavy Thunderstorms and Rain
7:05 PM 75.0 °F - 68.0 °F 79% 29.87 in 0.2 mi WSW 17.3 mph 49.5 mph 0.37 in Rain , Thunderstorm Heavy Thunderstorms and Rain
7:11 PM 73.9 °F - 71.1 °F 91% 29.88 in 1.0 mi WSW 15.0 mph - 0.42 in Rain , Thunderstorm Heavy Thunderstorms and Rain
7:18 PM 73.9 °F - 72.0 °F 93% 29.89 in 3.0 mi West 8.1 mph - 0.42 in Rain , Thunderstorm Light Thunderstorms and Rain
7:53 PM 75.0 °F - 70.0 °F 84% 29.86 in 10.0 mi SSW 9.2 mph - 0.42 in Thunderstorm Scattered Clouds
8:06 PM 73.9 °F - 70.0 °F 87% 29.86 in 10.0 mi NE 8.1 mph - N/A   Clear
8:53 PM 73.0 °F - 71.1 °F 93% 29.86 in 10.0 mi NNE 4.6 mph - N/A   Clear
9:53 PM 73.9 °F - 72.0 °F 93% 29.89 in 10.0 mi ESE 3.5 mph - N/A   Scattered Clouds
10:53 PM 73.9 °F - 72.0 °F 93% 29.86 in 9.0 mi Calm Calm - N/A   Clear
11:53 PM 73.9 °F - 72.0 °F 93% 29.86 in 9.0 mi ENE 3.5 mph - N/A   Mostly Cloudy